Carmi, IL

4:28 PM CDT on October 23, 2017 (GMT -0500)
Carmi Municipal

Weather History for KCUL - December, 2012

Change the Weather History Date:

Sunday, December 30, 2012

  Actual Average (KEHR) Record (KEHR)
Temperature  
Mean Temperature 16 °F -  
Max Temperature 31 °F 43 °F 69 °F (1951)
Min Temperature 0 °F 27 °F -3 °F (1983)
Degree Days  
Heating Degree Days 50    
Moisture  
Dew Point 14 °F    
Average Humidity 90    
Maximum Humidity 98    
Minimum Humidity 78    
Precipitation  
Precipitation 0.00 in - - ()
Sea Level Pressure  
Sea Level Pressure 30.41 in    
Wind  
Wind Speed 4 mph (SSE)    
Max Wind Speed 10 mph    
Max Gust Speed -    
Visibility 4 miles    
Events Fog , Snow    
Averages and records for this station are not official NWS values.
T = Trace of Precipitation, MM = Missing Value Source: NWS Daily Summary

Daily Weather History Graph

Daily Weather History Graph

Search for Another Location

Airport or City:

Trip Planner

Search our weather history database for the weather conditions in past years. The results will help you decide how hot, cold, wet, or windy it might be!

Date:

Astronomy

Dec. 30, 2012 Rise Set
Actual Time 7:08 AM CST 4:42 PM CST
Civil Twilight 6:39 AM CST 5:11 PM CST
Nautical Twilight 6:06 AM CST 5:44 PM CST
Astronomical Twilight 5:34 AM CST 6:16 PM CST
Moon 7:10 PM CST (12/30) 8:19 AM CST (12/30)
Length of Visible Light 10h 32m
Length of Day
9h 33m
Waning Gibbous, 95% of the Moon is Illuminated
Dec 30
Waning Gibbous
Jan 4
Last Quarter
Jan 11
New
Jan 18
First Quarter
Jan 26
Full

Hourly Weather History & Observations

Time (CST) Temp. Windchill Dew Point Humidity Pressure Visibility Wind Dir Wind Speed Gust Speed Precip Events Conditions
12:15 AM 16.7 °F 11.2 °F 15.6 °F 96% 30.35 in 3.0 mi West 3.5 mph - N/A   Clear
12:35 AM 18.3 °F 13.1 °F 17.4 °F 96% 30.35 in 4.0 mi West 3.5 mph - N/A   Clear
12:55 AM 16.2 °F 10.6 °F 14.5 °F 93% 30.37 in 0.8 mi WSW 3.5 mph - N/A   Mist
1:15 AM 8.8 °F 2.2 °F 5.5 °F 87% 30.37 in 0.2 mi SW 3.5 mph - N/A Fog Light Freezing Fog
1:35 AM 2.5 °F - -0.8 °F 86% 30.38 in 0.2 mi Calm Calm - N/A Fog Light Freezing Fog
1:55 AM 2.8 °F - -0.2 °F 87% 30.39 in 0.2 mi Calm Calm - N/A Fog Light Freezing Fog
2:15 AM 2.1 °F -5.4 °F -1.3 °F 86% 30.40 in 0.2 mi SSE 3.5 mph - N/A Fog Light Freezing Fog
2:35 AM 2.1 °F -5.4 °F -0.9 °F 87% 30.41 in 0.2 mi SSE 3.5 mph - N/A Fog Light Freezing Fog
2:55 AM 2.5 °F -5.0 °F -0.8 °F 86% 30.42 in 0.2 mi South 3.5 mph - N/A Fog Light Freezing Fog
3:15 AM 1.6 °F - -1.8 °F 86% 30.42 in 0.2 mi Calm Calm - N/A Fog Light Freezing Fog
3:35 AM 2.1 °F - -1.3 °F 86% 30.42 in 0.2 mi Calm Calm - N/A Fog Light Freezing Fog
3:55 AM 2.3 °F - -1.1 °F 86% 30.42 in 0.2 mi Calm Calm - N/A Fog Light Freezing Fog
4:15 AM 1.9 °F - -1.5 °F 86% 30.43 in 0.2 mi Calm Calm - N/A Fog Light Freezing Fog
4:35 AM 1.8 °F - -1.5 °F 86% 30.43 in 0.2 mi Calm Calm - N/A Fog Light Freezing Fog
4:55 AM 3.4 °F - 0.3 °F 87% 30.43 in 0.2 mi Calm Calm - N/A Fog Light Freezing Fog
5:15 AM -0.4 °F - -4.0 °F 85% 30.43 in 0.2 mi Calm Calm - N/A Fog Light Freezing Fog
5:35 AM -0.6 °F - -4.0 °F 85% 30.43 in 0.5 mi Calm Calm - N/A Fog Light Freezing Fog
5:55 AM -0.4 °F - -3.8 °F 85% 30.45 in 0.2 mi Calm Calm - N/A Fog Light Freezing Fog
6:15 AM 0.5 °F - -3.1 °F 85% 30.45 in 0.2 mi Calm Calm - N/A Fog Light Freezing Fog
6:35 AM 1.0 °F - -2.2 °F 86% 30.46 in 0.2 mi Calm Calm - N/A Fog Light Freezing Fog
7:15 AM -0.6 °F - -4.2 °F 85% 30.46 in 0.2 mi Calm Calm - N/A Fog Light Freezing Fog
7:35 AM 2.3 °F - -0.8 °F 87% 30.46 in 0.2 mi Calm Calm - N/A Fog Light Freezing Fog
7:55 AM 1.4 °F - -2.2 °F 85% 30.46 in 0.2 mi Calm Calm - N/A Fog Light Freezing Fog
8:15 AM 2.3 °F - -0.9 °F 86% 30.46 in 0.2 mi Calm Calm - N/A Fog Light Freezing Fog
8:35 AM 5.4 °F - 2.7 °F 89% 30.48 in 0.2 mi Calm Calm - N/A Fog Light Freezing Fog
8:55 AM 9.9 °F - 7.7 °F 91% 30.48 in 5.0 mi Calm Calm - N/A   Clear
9:15 AM 14.2 °F 8.4 °F 12.4 °F 93% 30.50 in 5.0 mi South 3.5 mph - N/A   Clear
9:35 AM 17.2 °F 8.9 °F 15.6 °F 93% 30.50 in 7.0 mi South 5.8 mph - N/A   Clear
9:55 AM 18.0 °F 8.7 °F 16.3 °F 93% 30.50 in 3.0 mi SSE 6.9 mph - N/A Snow Light Snow
10:15 AM 19.8 °F 11.9 °F 18.5 °F 95% 30.51 in 7.0 mi SSE 5.8 mph - N/A   Clear
10:35 AM 22.3 °F 14.9 °F 21.4 °F 96% 30.50 in 7.0 mi SSE 5.8 mph - N/A   Clear
10:55 AM 24.4 °F 20.1 °F 23.4 °F 96% 30.49 in 7.0 mi South 3.5 mph - N/A   Clear
11:15 AM 25.7 °F 16.4 °F 25.0 °F 97% 30.48 in 7.0 mi South 9.2 mph - N/A   Clear
11:35 AM 26.4 °F 18.0 °F 25.7 °F 97% 30.47 in 10.0 mi South 8.1 mph - N/A   Clear
11:55 AM 27.1 °F 19.7 °F 26.2 °F 96% 30.46 in 10.0 mi South 6.9 mph - N/A   Clear
12:15 PM 28.0 °F 21.7 °F 26.4 °F 94% 30.43 in 7.0 mi SSE 5.8 mph - N/A   Clear
12:35 PM 29.1 °F 23.0 °F 25.7 °F 87% 30.42 in 7.0 mi SSE 5.8 mph - N/A   Clear
12:55 PM 30.2 °F 22.6 °F 25.5 °F 83% 30.41 in 10.0 mi South 8.1 mph - N/A   Clear
1:15 PM 30.2 °F 25.4 °F 24.8 °F 80% 30.41 in 7.0 mi SSE 4.6 mph - N/A   Clear
1:55 PM 31.1 °F 22.4 °F 25.3 °F 79% 30.43 in 7.0 mi South 10.4 mph - N/A   Clear
2:15 PM 31.5 °F 23.5 °F 25.3 °F 78% 30.43 in 7.0 mi South 9.2 mph - N/A   Clear
2:35 PM 30.6 °F 23.1 °F 25.0 °F 80% 30.42 in 7.0 mi South 8.1 mph - N/A   Clear
2:55 PM 29.3 °F 21.5 °F 25.0 °F 84% 30.42 in 7.0 mi SSE 8.1 mph - N/A   Clear
3:15 PM 29.3 °F 21.5 °F 24.8 °F 83% 30.41 in 7.0 mi SSE 8.1 mph - N/A   Clear
3:35 PM 28.2 °F 22.0 °F 24.3 °F 85% 30.41 in 7.0 mi SSE 5.8 mph - N/A   Clear
3:55 PM 26.8 °F 18.5 °F 23.5 °F 88% 30.40 in 7.0 mi SE 8.1 mph - N/A   Clear
4:15 PM 25.0 °F 17.1 °F 22.1 °F 89% 30.40 in 7.0 mi SSE 6.9 mph - N/A   Clear
4:35 PM 24.1 °F 17.0 °F 21.6 °F 90% 30.41 in 5.0 mi South 5.8 mph - N/A   Clear
4:55 PM 27.3 °F 19.9 °F 25.0 °F 91% 30.40 in 7.0 mi South 6.9 mph - N/A   Clear
5:15 PM 24.6 °F 16.7 °F 22.3 °F 91% 30.40 in 7.0 mi SSE 6.9 mph - N/A   Clear
5:35 PM 21.4 °F 16.6 °F 19.8 °F 93% 30.40 in 7.0 mi SSE 3.5 mph - N/A   Clear
5:55 PM 21.7 °F 12.3 °F 19.9 °F 93% 30.39 in 7.0 mi SE 8.1 mph - N/A   Clear
6:15 PM 22.6 °F 14.3 °F 21.4 °F 95% 30.39 in 7.0 mi SSE 6.9 mph - N/A   Clear
6:35 PM 23.9 °F 15.8 °F 22.6 °F 95% 30.39 in 5.0 mi SSE 6.9 mph - N/A   Clear
6:55 PM 26.2 °F 19.6 °F 25.2 °F 96% 30.38 in 7.0 mi SSE 5.8 mph - N/A   Clear
7:15 PM 24.1 °F 17.0 °F 23.0 °F 96% 30.37 in 5.0 mi SSE 5.8 mph - N/A   Clear
7:35 PM 23.4 °F 18.9 °F 22.3 °F 96% 30.37 in 5.0 mi SSE 3.5 mph - N/A   Clear
7:55 PM 22.3 °F 16.1 °F 21.4 °F 96% 30.38 in 4.0 mi South 4.6 mph - N/A   Clear
8:15 PM 22.8 °F 15.5 °F 22.1 °F 97% 30.38 in 3.0 mi South 5.8 mph - N/A   Clear
8:35 PM 22.3 °F 14.9 °F 21.6 °F 97% 30.37 in 2.5 mi South 5.8 mph - N/A   Clear
8:55 PM 19.6 °F 14.5 °F 18.5 °F 96% 30.37 in 1.5 mi SSE 3.5 mph - N/A   Mist
9:15 PM 19.8 °F 14.7 °F 18.9 °F 96% 30.36 in 1.5 mi SE 3.5 mph - N/A   Mist
9:35 PM 20.7 °F 13.0 °F 19.8 °F 96% 30.35 in 3.0 mi SSE 5.8 mph - N/A   Clear
9:55 PM 20.7 °F 11.0 °F 19.8 °F 96% 30.34 in 4.0 mi SSE 8.1 mph - N/A   Clear
10:15 PM 23.0 °F 17.0 °F 22.3 °F 97% 30.33 in 5.0 mi SSE 4.6 mph - N/A   Clear
10:35 PM 23.5 °F 15.4 °F 23.0 °F 98% 30.31 in 5.0 mi SSE 6.9 mph - N/A   Clear
10:55 PM 24.1 °F 17.0 °F 23.4 °F 97% 30.32 in 5.0 mi South 5.8 mph - N/A   Clear
11:15 PM 23.7 °F 16.6 °F 23.0 °F 97% 30.31 in 5.0 mi South 5.8 mph - N/A   Clear
11:35 PM 23.5 °F 15.4 °F 22.8 °F 97% 30.31 in 5.0 mi South 6.9 mph - N/A   Clear
11:55 PM 25.0 °F 17.1 °F 24.4 °F 98% 30.30 in 7.0 mi South 6.9 mph - N/A   Clear